This is the latest recevied weather packets stored in our database for station/object N7CEE. If no packets are shown the sender has not sent any weather packets the latest 10 day(s).
| Time | Temp. | Humidity | Pressure | Rain* | Wind** | Luminosity | Snow |
|---|---|---|---|---|---|---|---|
| 1777749211 | 17.78° C | 24% | 1027.2 hPa | 0 mm | - | 843 W/m² | - |
| 1777748908 | 17.78° C | 24% | 1027.4 hPa | 0 mm | - | 854 W/m² | - |
| 1777748605 | 18.33° C | 24% | 1027.2 hPa | 0 mm | - | 848 W/m² | - |
| 1777748301 | 17.78° C | 24% | 1027.4 hPa | 0 mm | - | 833 W/m² | - |
| 1777747996 | 17.22° C | 24% | 1027.4 hPa | 0 mm | - | 845 W/m² | - |
| 1777747693 | 16.67° C | 24% | 1027.6 hPa | 0 mm | - | 833 W/m² | - |
| 1777747383 | 17.22° C | 23% | 1027.7 hPa | 0 mm | - | 801 W/m² | - |
| 1777747080 | 17.22° C | 24% | 1027.8 hPa | 0 mm | - | 829 W/m² | - |
| 1777746776 | 17.22° C | 23% | 1027.7 hPa | 0 mm | - | 829 W/m² | - |
| 1777746472 | 17.22° C | 23% | 1027.8 hPa | 0 mm | - | 827 W/m² | - |
| 1777746168 | 17.78° C | 23% | 1027.7 hPa | 0 mm | - | 820 W/m² | - |
| 1777745864 | 16.67° C | 26% | 1027.7 hPa | 0 mm | - | 814 W/m² | - |
| 1777745563 | 16.67° C | 25% | 1027.8 hPa | 0 mm | - | 808 W/m² | - |
| 1777745260 | 17.22° C | 24% | 1027.9 hPa | 0 mm | - | 797 W/m² | - |
| 1777744958 | 17.78° C | 24% | 1027.7 hPa | 0 mm | - | 789 W/m² | - |
| 1777744657 | 17.78° C | 24% | 1027.9 hPa | 0 mm | - | 782 W/m² | - |
| 1777744352 | 16.67° C | 25% | 1027.7 hPa | 0 mm | - | 773 W/m² | - |
| 1777744049 | 16.11° C | 26% | 1027.9 hPa | 0 mm | - | 762 W/m² | - |
| 1777743747 | 16.67° C | 25% | 1028.2 hPa | 0 mm | - | 753 W/m² | - |
| 1777743444 | 17.22° C | 25% | 1027.9 hPa | 0 mm | - | 756 W/m² | - |
| 1777743135 | 16.67° C | 24% | 1028.1 hPa | 0 mm | - | 746 W/m² | - |
| 1777742834 | 16.67° C | 26% | 1028.2 hPa | 0 mm | - | 735 W/m² | - |
| 1777742529 | 16.67° C | 26% | 1027.9 hPa | 0 mm | - | 689 W/m² | - |
| 1777742225 | 15.56° C | 27% | 1027.9 hPa | 0 mm | - | 724 W/m² | - |
| 1777741922 | 16.11° C | 26% | 1027.8 hPa | 0 mm | - | 705 W/m² | - |
* Rain latest hour (hover to see other rain measurements)
** Current wind speed in m/s (hover to see current wind gust speed)